Location: Bouysse
(45.3674°N, 1.8947°E)
Time: 22:02:09
(UTC+00:00)

Cosmos 1825 - Pass Details

Date: 07 June 2020
Orbit: 504 x 507 km, 82.5° (Epoch: 07 July)

Event Time Altitude Azimuth Distance (km) Brightness Sun altitude
Exits shadow 01:55:21 - 144° (SE) 1,813 4.7 -16.2°
Reaches altitude 10° 01:55:39 10° 141° (SE) 1,712 4.6 -16.2°
Maximum altitude 01:58:37 22° 89° (E) 1,131 4.3 -15.9°
Drops below altitude 10° 02:01:36 10° 37° (NE) 1,725 6.2 -15.7°
Sets 02:04:02 0° 22° (NNE) 2,616 7.5 -15.5°
